Location: São Paulo
(23.5507°S, 46.6334°W)
Time: 06:48:27
(UTC-03:00)

Transit 2A - Pass Details

Date: 16 February 2026
Orbit: 590 x 954 km, 66.7° (Epoch: 10 March)

Event Time Altitude Azimuth Distance (km) Brightness Sun altitude
Rises 23:47:17 0° 348° (NNW) 3,078 - -53.5°
Reaches altitude 10° 23:49:44 10° 352° (N) 2,112 - -53.6°
Maximum altitude 23:54:21 54° 69° (ENE) 778 - -53.9°
Drops below altitude 10° 23:58:41 10° 146° (SE) 1,980 - -54.0°
Sets 00:00:55 0° 150° (SSE) 2,866 - -54.1°
